Location: Tel Aviv
(32.0670°N, 34.7670°E)
Time: 07:09:54
(UTC+02:00)

Transit 2A - All Passes

Search period start: 29 November 2023 00:00
Search period end: 09 December 2023 00:00
Orbit: 600 x 953 km, 66.7° (Epoch: 28 November)

Date Brightness Start Highest point End Pass type
(mag) Time Alt. Az. Time Alt. Az. Time Alt. Az.
29 Nov - 00:45:48 10° NNE 00:47:36 12° NE 00:49:25 10° ENE night (unlit)
29 Nov - 02:26:40 10° NW 02:30:53 51° WSW 02:35:19 10° S night (unlit)
29 Nov - 15:18:16 10° S 15:23:10 34° ESE 15:27:40 10° NE daylight
29 Nov - 17:01:56 10° WSW 17:06:13 24° WNW 17:10:14 10° N visible
30 Nov - 01:51:40 10° NNW 01:56:02 89° SW 02:00:35 10° SSE night (unlit)
30 Nov - 14:44:18 10° SSE 14:48:20 21° ESE 14:52:08 10° ENE daylight
30 Nov - 16:26:16 10° SW 16:31:14 37° WNW 16:35:47 10° N daylight
01 Dec - 01:16:51 10° NNW 01:21:07 53° ENE 01:25:32 10° SE night (unlit)
01 Dec - 03:03:18 10° W 03:03:42 10° WSW 03:04:07 10° WSW night (unlit)
01 Dec - 14:11:08 10° SE 14:13:33 13° ESE 14:15:53 10° E daylight
01 Dec - 15:50:57 10° SW 15:56:17 59° WNW 16:01:08 10° NNE daylight
02 Dec - 00:42:15 10° N 00:46:09 31° ENE 00:50:10 10° ESE night (unlit)
02 Dec - 02:25:59 10° WNW 02:28:57 18° WSW 02:32:01 10° SSW night (unlit)
02 Dec - 15:15:55 10° SSW 15:21:22 87° ESE 15:26:18 10° NNE daylight
03 Dec - 00:07:55 10° N 00:11:08 20° ENE 00:14:24 10° ESE night (unlit)
03 Dec - 01:50:20 10° NW 01:54:08 30° WSW 01:58:08 10° S night (unlit)
03 Dec - 14:41:11 10° S 14:46:29 54° ESE 14:51:17 10° NE daylight
03 Dec - 16:26:39 10° W 16:29:45 16° NW 16:32:41 10° NNW daylight
03 Dec - 23:34:10 10° NNE 23:36:02 12° NE 23:37:54 10° ENE night (unlit)
04 Dec - 01:15:04 10° NW 01:19:18 51° WSW 01:23:46 10° S night (unlit)
04 Dec - 14:06:46 10° S 14:11:37 33° ESE 14:16:04 10° NE daylight
04 Dec - 15:50:28 10° WSW 15:54:40 24° WNW 15:58:36 10° N daylight
05 Dec - 00:40:04 10° NNW 00:44:26 89° WSW 00:49:02 10° SSE night (unlit)
05 Dec - 13:32:48 10° SSE 13:36:47 21° ESE 13:40:31 10° ENE daylight
05 Dec - 15:14:47 10° SW 15:19:40 37° WNW 15:24:09 10° N daylight
06 Dec - 00:05:15 10° NNW 00:09:31 53° ENE 00:13:59 10° SE night (unlit)
06 Dec - 01:51:32 10° W 01:52:07 10° WSW 01:52:43 10° WSW night (unlit)
06 Dec - 12:59:40 10° SE 13:02:00 13° ESE 13:04:13 10° E daylight
06 Dec - 14:39:26 10° SW 14:44:43 59° WNW 14:49:30 10° NNE daylight
06 Dec - 23:30:38 10° N 23:34:33 32° ENE 23:38:37 10° ESE night (unlit)
07 Dec - 01:14:21 10° WNW 01:17:21 18° WSW 01:20:28 10° SSW night (unlit)
07 Dec - 14:04:24 10° SSW 14:09:48 87° ESE 14:14:40 10° NNE daylight
07 Dec - 22:56:17 10° N 22:59:32 20° ENE 23:02:51 10° ESE night (unlit)
08 Dec - 00:38:42 10° NW 00:42:32 30° WSW 00:46:35 10° S night (unlit)
08 Dec - 13:29:40 10° S 13:34:55 54° ESE 13:39:39 10° NE daylight
08 Dec - 15:15:10 10° W 15:18:09 15° NW 15:21:01 10° NNW daylight
08 Dec - 22:22:31 10° NNE 22:24:25 13° NE 22:26:22 10° E night (unlit)
